Location: Chiroubles
(46.1812°N, 4.6660°E)
Time: 19:19:32
(UTC+00:00)

Geosat - Pass Details

Date: 15 August 2020
Orbit: 763 x 765 km, 108.0° (Epoch: 24 September)

Event Time Altitude Azimuth Distance (km) Brightness Sun altitude
Exits shadow 22:58:12 64° 323° (NW) 846 4.3 -29.2°
Drops below altitude 10° 23:02:27 10° 331° (NNW) 2,311 7.3 -29.4°
Sets 23:04:44 0° 332° (NNW) 3,241 8.3 -29.4°
